LUCH 5B (SDCM/PRN 125)

Last updated on Sat Sep 05 2026 00:03:32 GMT+0000 (Coordinated Universal Time)

1 38977U 12061A 26247.73520728 -.00000145 00000+0 00000+0 0 9998 2 38977 10.6501 49.0653 0006085 161.7855 21.4164 1.00270125 50403
UTC large
Height (km)
Speed (km/s)
/
Latitude / Longitude
Inclination (degrees)
Orbital Period (minutes)
Azimuth
Elevation
Range (km)
Doppler Factor

Next 0 passes for location: London (51.5072 / 0.1276)

No passes found over London.
LUCH 5B (SDCM/PRN 125)